Dewpoint
26 23 23 20 22 18 15 12 13 19 22 24 27 29 30 30 29 28 27 27 29 30 34 37 41 44 41 40 38 49 50 50 52 53 53 53 53 53 53 54 52 51 52 51
23 24 22 21 22 20 17 15 18 19 20 22 26 28 29 29 28 27 27 27 28 31 33 36 40 44 46 44 47 48 51 52 53 53 53 53 53 54 54 55 54 53 52 52
19 21 22 20 21 18 18 17 17 18 20 20 25 28 29 28 26 26 26 27 28 30 32 34 37 40 44 47 47 48 50 52 53 53 54 54 54 55 54 54 54 54 53 53
24 22 21 24 19 19 22 20 20 21 20 19 23 21 28 27 24 23 24 25 27 28 31 33 34 37 39 41 46 49 50 50 51 53 53 53 53 53 55 54 55 55 54 53
24 23 25 23 22 22 25 28 25 25 21 18 21 18 29 26 23 21 22 24 25 27 29 31 33 33 36 39 40 40 41 44 49 52 53 53 53 54 54 53 52 52 53 53
25 26 25 23 24 25 28 24 24 24 22 18 17 18 25 25 23 21 20 21 22 24 26 27 29 31 34 36 38 39 38 39 41 43 47 51 52 52 52 51 52 54 54 53
23 22 23 26 24 27 25 22 22 24 21 19 18 17 27 26 24 22 20 20 21 23 25 26 28 29 30 32 32 31 34 36 38 38 39 41 43 43 43 44 46 46 48 50
20 20 23 24 24 22 23 22 21 16 16 19 21 19 28 26 23 22 22 23 23 24 25 27 29 29 29 30 31 31 31 31 33 35 37 38 37 40 40 40 42 42 42 43
24 21 22 22 23 23 22 21 23 18 13 13 21 29 29 26 23 23 23 25 24 24 25 26 27 27 27 28 29 30 31 31 32 34 34 34 33 34 36 36 37 40 39 36
29 24 22 24 24 24 21 22 18 21 16 16 16 25 27 25 23 23 23 24 24 25 24 25 25 26 26 27 28 28 29 29 30 31 32 32 32 33 33 34 34 35 36 36
29 26 22 24 23 24 23 20 19 19 18 13 11 22 27 28 25 24 23 24 24 24 23 23 24 25 26 26 26 27 27 28 28 29 30 32 33 33 33 34 34 34 34 35
30 29 23 24 26 27 26 23 23 19 21 23 18 22 27 29 27 26 23 23 23 24 24 24 24 24 24 23 23 24 25 26 27 27 28 31 32 32 32 33 33 34 33 34
30 26 19 23 26 27 26 25 24 23 24 21 17 20 27 29 27 24 23 22 22 23 24 24 23 22 21 21 21 22 24 25 25 25 27 29 31 30 30 31 31 31 32 32
31 28 24 19 24 27 25 26 24 22 20 17 15 22 27 28 27 25 23 22 22 23 24 25 25 22 21 21 22 23 24 24 25 25 27 28 29 28 29 30 29 29 30 30
25 22 20 21 20 23 23 21 21 21 20 16 14 15 19 27 27 25 24 22 21 22 23 24 24 23 22 22 22 23 24 24 25 25 26 26 28 29 30 30 30 30 31 30
17 15 12 8 9 12 10 11 13 14 13 11 11 11 20 20 22 22 21 20 21 22 24 24 24 23 22 22 23 23 24 25 26 26 26 28 28 29 30 30 30 30 31 31
13 13 8 -1 7 8 6 12 9 14 16 15 14 18 18 19 20 20 20 20 20 23 24 24 23 23 23 23 23 25 26 26 26 26 26 25 26 26 27 28 28 29 30 31
15 11 13 10 10 3 15 18 17 16 16 18 18 19 20 20 20 20 21 20 21 25 24 23 23 24 24 24 25 26 26 25 25 25 25 26 26 26 27 28 29 29 29 29
22 18 17 11 9 10 17 18 18 17 17 19 18 19 21 22 22 21 23 22 25 25 25 23 24 24 23 24 26 25 25 25 25 25 25 25 26 26 27 28 28 28 29 30
23 21 19 16 14 5 17 20 20 19 14 22 21 18 18 17 14 16 24 25 26 26 24 24 24 24 24 25 25 25 25 25 24 25 25 25 26 26 25 27 29 31 32 30
19 19 19 19 17 14 18 20 21 13 17 20 20 17 17 17 17 17 17 25 25 24 24 24 24 24 24 26 25 25 25 24 25 25 25 25 26 26 26 29 30 33 30 29
13 13 16 15 15 14 21 21 15 16 17 16 15 15 18 19 20 20 21 27 25 25 25 24 24 24 25 25 25 25 24 24 24 25 25 24 25 24 26 27 29 29 28 28
10 10 14 14 13 21 22 21 21 17 13 17 18 20 21 21 22 24 27 26 25 24 23 23 24 24 25 24 25 25 24 24 24 24 24 24 24 25 25 25 26 26 27 27
10 11 14 8 2 4 7 9 10 12 16 19 21 21 22 22 24 25 25 26 25 23 22 23 24 24 24 25 25 25 23 24 23 22 23 23 23 24 23 24 23 25 25 25
12 13 11 11 10 9 11 12 15 18 19 20 21 21 22 23 25 26 25 25 23 23 23 24 24 24 25 25 25 24 22 23 22 21 21 21 22 21 20 23 24 23 25 25
13 8 9 10 8 7 8 13 18 18 20 21 21 22 24 25 26 27 26 24 23 23 23 24 24 24 25 25 24 23 22 22 22 21 21 21 22 22 21 19 24 25 24 23
Lifted_Index
8 7 7 8 8 7 7 6 7 8 8 8 7 7 9 10 10 10 10 10 10 11 11 11 10 8 7 6 4 3 3 3 3 3 3 3 3 3 4 4 4 4 5 5
7 7 7 8 7 7 6 6 6 7 8 8 7 7 8 9 10 10 10 10 10 11 11 11 10 9 7 6 5 4 3 3 3 3 3 3 3 3 3 4 4 4 4 5
7 7 7 7 7 6 6 6 6 6 6 7 6 6 7 8 9 9 10 10 10 10 10 10 10 9 8 6 5 4 4 3 3 3 3 3 3 3 3 3 4 4 4 4
6 7 7 6 6 6 5 6 6 6 5 5 5 5 6 7 7 8 9 10 10 10 10 10 10 10 9 8 7 5 5 4 3 3 3 3 3 3 3 3 4 4 4 4
6 7 6 6 6 6 6 6 6 6 5 4 4 4 5 6 6 7 8 9 10 10 10 10 10 11 11 10 9 8 6 5 5 4 4 4 4 4 4 4 4 4 5 5
6 7 7 7 7 7 7 6 5 4 4 3 3 4 5 6 6 6 8 9 9 9 10 10 11 11 12 12 11 10 9 8 8 7 6 6 5 5 5 5 5 5 5 5
6 6 7 7 7 7 6 5 3 2 2 2 3 4 5 5 5 6 7 8 9 9 10 10 11 11 12 12 12 12 12 11 11 11 10 9 8 8 8 7 7 7 7 6
5 5 6 7 7 6 6 5 3 2 1 2 3 4 4 5 5 6 7 8 8 9 9 10 11 11 12 12 12 13 13 13 13 13 13 12 12 11 11 11 10 10 10 9
5 5 6 7 7 7 6 5 4 3 2 2 2 3 4 4 5 6 7 7 8 8 9 10 10 11 11 12 12 13 13 13 13 13 14 14 14 13 13 13 13 13 13 13
6 6 7 7 7 7 6 6 5 4 2 1 2 3 3 4 5 5 6 7 7 8 9 9 10 11 11 12 12 12 13 13 13 13 13 13 14 14 14 14 14 14 14 14
7 6 6 6 6 6 6 5 5 4 3 2 2 2 3 4 5 6 6 7 8 8 9 10 10 11 11 12 12 12 12 12 13 13 14 14 14 14 14 14 14 14 14 14
7 6 5 5 6 6 6 5 5 4 3 3 2 3 4 4 5 6 6 7 8 9 9 10 11 11 11 11 12 12 12 12 13 14 14 14 14 14 14 14 14 14 14 14
7 6 4 4 5 5 5 5 5 4 4 3 3 3 4 5 5 6 6 7 8 9 10 10 11 11 11 11 11 12 12 13 14 14 14 14 14 14 14 14 14 14 14 14
7 6 4 4 4 5 5 5 5 4 3 3 3 4 5 5 5 6 6 7 9 10 10 10 11 11 11 11 12 12 13 14 14 15 15 15 15 14 14 14 14 14 14 14
7 6 4 4 5 5 5 5 5 4 3 3 3 4 5 6 6 6 7 8 9 10 10 11 11 11 11 12 12 13 14 14 15 15 15 15 15 15 15 15 15 15 15 15
7 5 4 4 5 4 4 4 4 4 4 4 4 5 6 7 7 7 8 8 9 10 10 11 11 11 12 12 13 14 14 14 15 15 15 15 15 15 15 15 15 15 15 15
6 5 4 4 4 4 4 4 5 5 5 5 5 6 7 7 7 8 8 9 9 10 10 11 11 11 12 13 13 14 14 14 15 15 15 15 15 15 15 15 15 15 15 15
7 6 4 3 3 3 4 5 6 5 5 6 7 7 8 8 8 9 9 9 9 10 10 10 11 11 12 13 13 14 14 14 14 14 14 15 15 15 15 15 16 16 16 16
8 6 4 3 2 3 5 6 6 6 6 7 8 8 9 9 9 9 9 9 9 9 10 10 11 11 12 13 13 13 14 14 14 14 14 15 15 15 16 16 16 16 16 16
7 6 5 3 3 3 5 7 7 6 6 7 8 9 9 9 9 9 9 9 9 9 10 10 10 11 11 12 12 12 13 13 13 14 14 15 16 16 17 17 17 17 17 16
6 5 4 3 3 4 6 7 7 7 7 8 9 9 10 10 10 10 10 9 9 9 9 9 9 9 10 10 10 10 10 11 12 13 14 15 16 16 17 17 17 17 17 17
5 4 4 4 4 5 6 7 7 8 8 9 9 10 10 10 10 10 9 9 8 8 8 7 7 7 7 7 7 7 7 8 9 11 12 12 13 14 15 15 16 16 16 16
6 6 6 6 6 6 7 8 8 9 9 10 10 10 10 10 9 8 8 7 6 6 5 4 4 4 4 4 5 5 6 7 8 9 9 10 11 11 12 13 14 14 15 15
7 8 8 7 8 8 9 9 9 10 10 10 10 9 9 9 8 7 5 4 4 3 2 2 3 3 3 4 5 5 6 7 8 9 9 9 9 9 10 10 11 12 13 13
8 9 8 8 9 9 9 9 10 10 9 9 9 9 8 7 5 4 3 2 1 1 1 2 2 3 3 4 5 6 7 8 9 9 9 8 9 9 9 9 10 10 11 12
8 9 8 8 9 10 9 9 9 9 9 9 8 8 7 6 4 2 1 1 1 1 1 2 2 3 3 5 6 7 8 9 9 9 9 8 9 9 9 9 9 10 11 11